Find Starlink 32004

NORAD ID: 60151 Int'l Des: 2024-120 Owner: SPXS Country: US Constellation: starlink operational
LEOCIRCULAR

リアルタイム位置

3D地球を読み込み中...

Starlink 32004について

説明を読み込み中...

次回通過

Passes for default location (London). Set your location on the main map for personalized predictions.

高度履歴

Loading altitude history...

軌道要素

1 60151U 24120S 26127.18553122 -.00000371 00000-0 -41083-6 0 9992
2 60151 53.1617 48.1100 0001319 111.5532 248.5609 15.30199948105418
Epoch: May 7, 2026 • Age: 4 hours

現在のステータス

高度 491.1 km
速度 7.62 km/s
衛星直下点 -45.11°S, 79.12°W
打ち上げ日 Jun 27, 2024
運用期間 1.8 years
タイプ internet

技術仕様

分類 Payload
質量 730.00 kg
乾燥質量 700.00 kg
総質量 730.00 kg
長さ 0.30 m
直径 4.10 m
スパン 29.00 m
形状 Box + pan
製造者 SPXS
バスタイプ Starlink V2M
フェーズステータス In Orbit
所有者/国 SPXS/US

Most Searched